Showing default

KUIPER-00197, 67769

Orbit data source: Space-Track

KUIPER-00197, 67769 is a payload satellite owned by Kuiper Systems (US) in LEO that was launched on Thu, 12 Feb 2026 UTC via an ARIANE 64 launch vehicle from the French Guiana (FRGUI). Payload-class satellites include a variety of spacecraft equipped with specific instruments for various scientific and technological missions. These include communications satellites like Starlink; space stations such as the ISS; scientific satellites like the Hubble; Earth observation satellites from companies like Planet Labs, Umbra, and HawkEye 360; GPS; miniature CubeSats for education and research; and military/defense satellites.

Loading next visibility...
Identifier
67769, 2026-030F
Orbit
LEO
Country
Flag of USUS
Related business
Manufacturer
Kuiper Systems
Mission
Operational Commercial Communications
Bus & Motor
KUIPER, Unknown motor
Mass
~490 kg wet, ~490 kg dry
Launch date (UTC)
2026-02-12 (4 months ago)
Launch vehicle
ARIANE 64
Launch site
French Guiana (FRGUI)
Object type
Payload
Rocket body
Debris
Shape & HBR
Box + 2 Pan, 3.4 m
Radar Cross Section
2.326 m², Large (>1 m²)

Expand to show TLE details & history
Last TLE update: 10 hours ago

TLE from 10 hours ago
0 KUIPER-00197
1 67769U 26030F   26171.41668980 -.00022127  00000-0 -29642-2 0  9996
2 67769  51.8985  93.8618 0001713 108.4369  27.1215 14.78766607  5769
Epoch: 2026-06-20T10:00Z
TLE epoch observation values (Epoch: 2026-06-20T10:00:01.998Z)
Latitude
33.5364°
Longitude
-175.90346°
Altitude
634.326 km
Speed
7.546 km/s
True Right ascension
16h 10m 56s
True Declination
33° 22' 32"
Sunlit
Object was in full shadow at epoch
Visualization orbit readout
Latitude
Unknown
Longitude
Unknown
Altitude
Unknown
Speed
Unknown
Apparent Right ascension
Unknown
Apparent Declination
Unknown
Sunlit
N/A
Visualization observer readout
Local Sidereal Time
07:19:47
Azimuth
Unknown
Elevation
Unknown
Doppler factor
Unknown
Orbital elements
Apogee altitude
634.872 km
Perigee altitude
632.47 km
Semi-major axis
7,011.808 km
Eccentricity
0.00017
Inclination
51.8985°
RAAN
93.8618°
Arg. of periapsis
108.4369°
True anomaly
27.13045°
Mean anomaly
27.1215°
Eccentric anomaly
27.12598°
Mean motion
3.69656 °/min
Orbital period
97.39 mins
BSTAR
-0.0029642
Loading maneuver chart data...
Computing Atmospheric mass density...
Loading historical data...
Loading historical data...
Loading historical data...
Loading historical data...
Loading historical data...
Loading historical data...
Loading historical data...

Documentation

Showing up to 5 results
|